Regional Weather Roundup
Issued by NWS State College, PA

Home | Current Version | Previous Version | Graphics & Text | Print | Product List | Glossary Off
Versions: 1 2 3 4 5 6 7 8 9 10 11 12 13 14 15 16 17 18 19 20 21 22 23 24 25 26 27 28 29 30 31 32 33 34 35 36 37 38 39 40 41 42 43 44 45 46 47 48 49 50

000
ASUS41 KCTP 201503
RWRCTP

REGIONAL WEATHER ROUNDUP
NATIONAL WEATHER SERVICE STATE COLLEGE PA
1100 AM EDT FRI APR 20 2018

Note: "fair" indicates few or no clouds below 12,000 feet with no
significant weather and/or obstructions to visibility.

* = STATION THAT DOES NOT REPORT PRECIPITATION /E.G. RAIN...SNOW...ETC/
    THUNDER OR FOG.

PAZ002>004-007>009-013>016-020>023-029>032-201600-
WESTERN PENNSYLVANIA

CITY           SKY/WX    TMP DP  RH WIND       PRES   REMARKS
ERIE           FAIR      39  27  62 NW8       30.43R
MEADVILLE      FAIR      39  25  57 NW9       30.39R
FRANKLIN*      FAIR      38  23  55 NW12G18   30.38R
NEW CASTLE     FAIR      41  24  51 N12G18    30.42R
BEAVER COUNTY  SUNNY     41  23  48 NW10G16   30.41R
BUTLER*        FAIR      40  23  50 NW13      30.39R
PITTSBURGH INT FAIR      42  24  49 NW12G20   30.40R
PITTSBURGH     FAIR      41  22  46 NW10G22   30.38R
INDIANA*       SUNNY     39  23  52 NW12G21   30.39R
LATROBE        SUNNY     39  23  52 NW9       30.39R
WASHINGTON CO* FAIR      42  23  46 NW16      30.43R
$$

PAZ004>006-010>012-017>019-024>028-033>037-041-042-045-046-049>053-201600-
CENTRAL PENNSYLVANIA

CITY           SKY/WX    TMP DP  RH WIND       PRES   REMARKS
BRADFORD       FAIR      34  21  59 NW14      30.28R
DUBOIS         FAIR      37  24  59 NW15G21   30.31R
CLEARFIELD     FAIR      38  22  52 NW14G22   30.31R
JOHNSTOWN      FAIR      36  22  56 NW20      30.28R
ALTOONA        FAIR      41  24  51 NW15G25   30.30R
STATE COLLEGE  MOSUNNY   39  23  52 NW17      30.29R
WILLIAMSPORT   FAIR      40  20  44 W9G17     30.29R
SELINSGROVE    FAIR      43  26  51 N14       30.29R
FT INDIANTOWN  MOSUNNY   43  23  45 N9G23     30.27R
CAPITAL CITY   FAIR      46  24  42 NW12      30.29R
HARRISBURG     PTSUNNY   44  24  45 NW15      30.28R
YORK           FAIR      44  26  49 N12G20    30.28R
$$

PAZ038>040-043-044-047-048-054-055-060>062-067>071-201600-
EASTERN PENNSYLVANIA

CITY           SKY/WX    TMP DP  RH WIND       PRES   REMARKS
SCRANTON       CLOUDY    35  23  61 NW12      30.25R
MOUNT POCONO   FAIR      31  21  66 NW23G32   30.14S
ALLENTOWN      FAIR      44  23  43 NW10G23   30.23R
QUAKERTOWN*    SUNNY     41  23  48 W10G16    30.22S
READING        FAIR      43  26  51 N21G26    30.25R
LANCASTER      FAIR      43  26  51 NW12G24   30.26R
COATESVILLE    FAIR      43  25  49 NW20      30.25R
POTTSTOWN      FAIR      42  23  46 NW13G25   30.25R
BLUE BELL      FAIR      41  27  56 NW12G20   30.25R
DOYLESTOWN     FAIR      44  23  43 NW15G26   30.21R
WILLOW GROVE   NOT AVBL
NORTH PHILA    FAIR      46  24  42 NW16G24   30.24R
PHILADELPHIA   FAIR      44  21  40 NW12      30.25R
$$




USA.gov is the U.S. government's official web portal to all federal, state and local government web resources and services.